TimeCDT,TemperatureF,Dew PointF,Humidity,Sea Level PressureIn,VisibilityMPH,Wind Direction,Wind SpeedMPH,Gust SpeedMPH,PrecipitationIn,Events,Conditions,WindDirDegrees,DateUTC
12:53 AM,53.1,46.9,80,30.00,10.0,North,3.5,-,N/A,,Overcast,350,2013-10-17 05:53:00
1:53 AM,53.1,46.0,77,30.00,9.0,North,6.9,-,N/A,,Overcast,360,2013-10-17 06:53:00
2:53 AM,51.1,46.0,83,30.00,9.0,North,5.8,-,0.00,Rain,Light Rain,10,2013-10-17 07:53:00
3:53 AM,50.0,46.9,89,29.99,9.0,NNE,3.5,-,0.01,Rain,Light Rain,20,2013-10-17 08:53:00
4:53 AM,50.0,46.0,86,30.00,10.0,ENE,5.8,-,0.00,,Overcast,60,2013-10-17 09:53:00
5:53 AM,48.9,46.9,93,29.99,10.0,SE,5.8,-,N/A,,Overcast,130,2013-10-17 10:53:00
6:45 AM,50.0,46.4,87,29.99,10.0,Calm,Calm,-,N/A,,Overcast,0,2013-10-17 11:45:00
6:53 AM,50.0,46.9,89,29.99,10.0,Calm,Calm,-,N/A,,Overcast,0,2013-10-17 11:53:00
7:23 AM,50.0,46.4,87,30.00,10.0,Calm,Calm,-,N/A,,Overcast,0,2013-10-17 12:23:00
7:53 AM,48.9,46.9,93,30.00,10.0,Calm,Calm,-,N/A,,Mostly Cloudy,0,2013-10-17 12:53:00
8:23 AM,51.8,48.2,88,30.01,10.0,Calm,Calm,-,N/A,,Mostly Cloudy,0,2013-10-17 13:23:00
8:35 AM,51.8,48.2,88,30.01,10.0,Calm,Calm,-,N/A,,Overcast,0,2013-10-17 13:35:00
8:53 AM,51.1,48.0,89,30.03,5.0,Calm,Calm,-,N/A,,Overcast,0,2013-10-17 13:53:00
9:53 AM,52.0,48.0,86,30.03,10.0,WSW,5.8,-,N/A,,Overcast,240,2013-10-17 14:53:00
10:39 AM,53.6,48.2,82,30.03,10.0,Variable,4.6,-,N/A,,Overcast,0,2013-10-17 15:39:00
10:53 AM,54.0,48.0,80,30.03,10.0,SW,4.6,-,N/A,,Overcast,230,2013-10-17 15:53:00
11:27 AM,55.4,48.2,77,30.03,10.0,WSW,8.1,-,N/A,,Overcast,250,2013-10-17 16:27:00
11:53 AM,57.0,48.9,74,30.02,10.0,WSW,6.9,-,N/A,,Scattered Clouds,250,2013-10-17 16:53:00
12:04 PM,57.2,48.2,72,30.03,10.0,WSW,5.8,-,N/A,,Mostly Cloudy,240,2013-10-17 17:04:00
12:53 PM,60.1,48.9,67,30.01,9.0,West,5.8,-,N/A,,Mostly Cloudy,260,2013-10-17 17:53:00
1:07 PM,60.8,48.2,63,30.00,10.0,Variable,6.9,-,N/A,,Mostly Cloudy,0,2013-10-17 18:07:00
1:53 PM,61.0,46.9,60,29.98,10.0,West,4.6,-,N/A,,Overcast,260,2013-10-17 18:53:00
2:53 PM,62.1,46.9,58,29.97,10.0,Variable,3.5,-,N/A,,Overcast,0,2013-10-17 19:53:00
3:53 PM,62.1,46.9,58,29.97,10.0,WNW,6.9,-,N/A,,Mostly Cloudy,300,2013-10-17 20:53:00
4:53 PM,63.0,46.0,54,29.96,10.0,West,4.6,-,N/A,,Clear,260,2013-10-17 21:53:00
5:53 PM,61.0,46.9,60,29.96,10.0,South,3.5,-,N/A,,Clear,180,2013-10-17 22:53:00
6:53 PM,54.0,48.9,83,29.97,10.0,South,3.5,-,N/A,,Clear,180,2013-10-17 23:53:00
7:53 PM,52.0,48.0,86,29.98,10.0,Calm,Calm,-,N/A,,Clear,0,2013-10-18 00:53:00
8:53 PM,50.0,48.0,93,29.99,10.0,Calm,Calm,-,N/A,,Clear,0,2013-10-18 01:53:00
9:53 PM,48.9,46.0,90,30.00,10.0,Calm,Calm,-,N/A,,Clear,0,2013-10-18 02:53:00
10:53 PM,46.0,45.0,96,30.01,10.0,Calm,Calm,-,N/A,,Clear,0,2013-10-18 03:53:00
11:53 PM,46.0,45.0,96,30.01,10.0,Calm,Calm,-,N/A,,Clear,0,2013-10-18 04:53:00